[[{"header":{"parameterUnit":"m.s-1","parameterCategory":1,"la1":30.2991,"la2":30.254,"lo1":-89.0895,"lo2":-89.0444,"dy":0.0017,"dx":0.0017,"nx":28,"ny":28,"refTime":"2024-06-13T09:00:00:Z","depth":0,"parameterNumber":2,"parameterNumberName":"U-component_of_WINDS"},"data":[0,0,0,0,0,0,0,0,0,0,0,0,0,0,0,0,0,0,0,0,0,0,0,0,0,0,0,0,0,0,0,0,0,0,0,0,0,0,0,0,0,0,0,0,0,0,0,0,0,0,0,0,0,0,0,0,0,0,-0.8245,-0.8245,0,-0.8159,-0.8158,-0.8157,-0.8069,-0.8068,-0.8067,-0.8065,-0.7976,-0.7975,-0.7974,0,0,0,0,0,0,0,0,0,0,0,0,0,-0.8333,-0.8332,-0.8246,-0.8245,-0.8243,-0.8159,-0.8158,-0.8157,-0.8069,-0.8068,-0.8066,-0.8065,-0.7976,-0.7975,-0.7973,0,0,0,0,0,0,0,0,0,0,0,0,0,-0.8276,-0.8332,-0.8246,-0.819,-0.8184,-0.816,-0.8158,-0.8157,-0.8069,-0.8068,-0.8066,-0.8064,-0.7977,-0.7975,-0.7973,-0.7997,0,0,-0.7967,-0.7967,0,0,0,0,0,0,0,0,-0.8279,-0.8273,-0.8199,-0.8193,-0.8187,-0.8123,-0.8156,-0.8103,-0.807,-0.8113,-0.8065,-0.8063,-0.8026,-0.802,-0.8008,-0.7993,-0.7989,-0.7967,-0.7966,-0.7965,-0.7965,0,0,0,0,0,0,0,-0.8283,-0.8276,-0.8211,-0.8198,-0.819,-0.8168,-0.8158,-0.8146,-0.8081,-0.8109,-0.8102,-0.8093,-0.8023,-0.801,-0.8005,-0.7988,-0.7967,-0.7966,-0.7964,-0.7964,-0.7989,-0.799,0,0,0,0,0,0,-0.8296,-0.828,-0.8214,-0.8209,-0.823,-0.8168,-0.8157,-0.8145,-0.8081,-0.8069,-0.8095,-0.809,-0.8014,-0.8008,-0.8002,-0.8026,-0.7965,-0.7964,-0.7962,-0.7987,-0.7989,-0.7991,0,0,0,0,0,0,-0.8298,-0.8291,-0.8218,-0.8242,-0.8231,-0.8168,-0.8156,-0.8145,-0.8132,-0.807,-0.8058,-0.8094,-0.8012,-0.8004,-0.7999,-0.8022,-0.7963,-0.7961,-0.7985,-0.7987,-0.799,-0.8075,0,0,0,0,0,0,-0.8301,-0.8292,-0.8301,-0.8243,-0.823,-0.8217,-0.8158,-0.8144,-0.8129,-0.8121,-0.8066,-0.8055,-0.801,-0.8003,-0.7997,-0.8018,-0.7959,-0.7982,-0.7986,-0.7989,-0.807,-0.808,-0.8089,0,0,0,0,0,-0.8305,-0.8328,-0.8302,-0.8295,-0.824,-0.8219,-0.8211,-0.816,-0.8131,-0.8139,-0.8099,-0.8057,-0.802,-0.8003,-0.7996,-0.8017,-0.7981,-0.7985,-0.7989,-0.8066,-0.8078,-0.8089,0,0,0,0,0,0,-0.839,-0.832,-0.829,-0.8296,-0.8264,-0.8204,-0.8213,-0.8174,-0.815,-0.8143,-0.808,-0.8068,-0.8071,-0.8043,-0.8025,-0.8036,-0.7994,-0.7997,-0.8055,-0.8066,-0.8076,-0.8083,-0.7958,0,0,0,0,0,-0.841,-0.8399,-0.8337,-0.8348,-0.8334,-0.8276,-0.8265,-0.8228,-0.8192,-0.8178,-0.8138,-0.8105,-0.8085,-0.8074,-0.8053,-0.8065,-0.8052,-0.8076,-0.8085,-0.8094,-0.8097,-0.8102,-0.8112,-0.8004,-0.8004,-0.8004,0,0,-0.845,-0.841,-0.8407,-0.8364,-0.8335,-0.8325,-0.8265,-0.8257,-0.8248,-0.8176,-0.817,-0.8139,-0.8097,-0.8101,-0.8101,-0.8078,-0.8124,-0.8099,-0.8106,-0.8105,-0.8107,-0.8117,-0.8127,-0.8007,-0.8007,-0.8006,0,0,-0.8518,-0.8487,-0.8493,-0.8465,-0.8422,-0.8383,-0.8385,-0.833,-0.8308,-0.8299,-0.8246,-0.8234,-0.8202,-0.8175,-0.8157,-0.8215,-0.8175,-0.821,-0.826,-0.8266,-0.8274,-0.8282,-0.8303,-0.8311,-0.8213,-0.8214,-0.8214,0,-0.8574,-0.8556,-0.8501,-0.8495,-0.8478,-0.8413,-0.8419,-0.8394,-0.8346,-0.8336,-0.8311,-0.827,-0.8237,-0.8234,-0.8248,-0.8236,-0.8235,-0.8216,-0.8278,-0.8284,-0.829,-0.831,-0.8318,-0.8218,-0.8218,-0.8217,-0.8217,0,-0.8627,-0.8616,-0.8625,-0.8582,-0.8565,-0.8566,-0.851,-0.85,-0.8464,-0.8428,-0.8421,-0.8379,-0.8349,-0.8345,-0.831,-0.8337,-0.8324,-0.8289,-0.8246,-0.8306,-0.8324,-0.8331,-0.8225,-0.8223,-0.8222,-0.8221,0,0,-0.8748,-0.8673,-0.8678,-0.8657,-0.8604,-0.8594,-0.8591,-0.8562,-0.8555,-0.8524,-0.852,-0.8494,-0.8462,-0.8442,-0.8403,-0.8407,-0.8457,-0.8371,-0.837,-0.839,-0.8484,-0.8512,-0.8522,-0.8429,-0.843,-0.8431,-0.8488,0,-0.8808,-0.8799,-0.8749,-0.8755,-0.8743,-0.8681,-0.8678,-0.8646,-0.8612,-0.8597,-0.8559,-0.8543,-0.8501,-0.8488,-0.849,-0.845,-0.8475,-0.8445,-0.8425,-0.8425,-0.8439,-0.853,-0.8559,-0.8615,-0.8495,-0.8496,-0.8496,0,-0.8877,-0.8851,-0.8856,-0.8803,-0.8797,-0.8796,-0.8765,-0.8751,-0.8713,-0.8688,-0.8665,-0.8622,-0.8615,-0.8573,-0.8563,-0.8544,-0.8533,-0.8512,-0.8513,-0.851,-0.8466,-0.8531,-0.8631,-0.864,-0.8506,-0.8506,-0.8505,0,-0.8965,-0.8931,-0.893,-0.8914,-0.8853,-0.8853,-0.8828,-0.8787,-0.8773,-0.8746,-0.8736,-0.8708,-0.8693,-0.8672,-0.8622,-0.8597,-0.8618,-0.8572,-0.8597,-0.8599,-0.8605,-0.8606,-0.8707,-0.8597,-0.8597,-0.8596,-0.8596,0,-0.9038,-0.9044,-0.8969,-0.8968,-0.8973,-0.8914,-0.8921,-0.8889,-0.8854,-0.8846,-0.8789,-0.8783,-0.8716,-0.8703,-0.8663,-0.8661,-0.8654,-0.8634,-0.8624,-0.864,-0.8643,-0.8632,-0.8628,-0.8599,-0.8598,-0.8598,-0.8597,0,-0.9138,-0.9088,-0.9083,-0.9025,-0.9011,-0.9017,-0.8968,-0.8964,-0.8927,-0.8918,-0.8912,-0.8853,-0.8834,-0.8782,-0.8748,-0.8722,-0.8731,-0.8711,-0.8745,-0.8738,-0.8767,-0.8765,-0.8865,-0.8876,-0.8759,-0.876,-0.8761,0,-0.9189,-0.9192,-0.9135,-0.9125,-0.9102,-0.9088,-0.9073,-0.9015,-0.9002,-0.8959,-0.8961,-0.8937,-0.8915,-0.8887,-0.8841,-0.8816,-0.8795,-0.8832,-0.8791,-0.8807,-0.8797,-0.8798,-0.8798,-0.8842,-0.8843,-0.8844,-0.8845,0,-0.9283,-0.9259,-0.9239,-0.9212,-0.9196,-0.9171,-0.9143,-0.9139,-0.9074,-0.9062,-0.9042,-0.9025,-0.8991,-0.8968,-0.8936,-0.8909,-0.8867,-0.8859,-0.8863,-0.888,-0.89,-0.8891,-0.877,-0.8857,-0.8856,-0.8855,-0.8854,-0.8854,-0.936,-0.9361,-0.9321,-0.9301,-0.9274,-0.925,-0.9244,-0.9206,-0.9188,-0.9157,-0.9124,-0.9107,-0.9068,-0.902,-0.8996,-0.8982,-0.896,-0.8967,-0.8969,-0.8971,-0.8979,-0.8902,-0.8976,-0.8976,-0.8975,-0.8975,-0.8975,0,-0.9453,-0.9425,-0.9407,-0.937,-0.9355,-0.9317,-0.9284,-0.9274,-0.926,-0.9228,-0.9207,-0.9184,-0.9162,-0.9114,-0.9088,-0.9086,-0.9066,-0.9081,-0.9081,-0.9076,-0.9,-0.8999,-0.9097,-0.9097,-0.9097,-0.9097,-0.9097,-0.9097,-0.95,-0.9498,-0.9469,-0.9453,-0.9424,-0.9408,-0.9392,-0.9369,-0.9343,-0.932,-0.9301,-0.927,-0.9232,-0.9202,-0.918,-0.9166,-0.9159,-0.9181,-0.9162,-0.9092,-0.9081,-0.907,-0.9069,-0.918,-0.918,-0.9238,-0.9239,-0.9239]},{"header":{"parameterUnit":"m.s-1","parameterCategory":1,"la1":30.2991,"la2":30.254,"lo1":-89.0895,"lo2":-89.0444,"dy":0.0017,"dx":0.0017,"nx":28,"ny":28,"refTime":"2024-06-13T09:00:00:Z","depth":0,"parameterNumber":3,"parameterNumberName":"V-component_of_WINDS"},"data":[0,0,0,0,0,0,0,0,0,0,0,0,0,0,0,0,0,0,0,0,0,0,0,0,0,0,0,0,0,0,0,0,0,0,0,0,0,0,0,0,0,0,0,0,0,0,0,0,0,0,0,0,0,0,0,0,0,0,0.4198,0.4197,0,0.4174,0.4173,0.4173,0.4154,0.4153,0.4153,0.4153,0.4128,0.4128,0.4127,0,0,0,0,0,0,0,0,0,0,0,0,0,0.4226,0.4225,0.4198,0.4197,0.4197,0.4174,0.4173,0.4173,0.4154,0.4153,0.4153,0.4153,0.4128,0.4128,0.4127,0,0,0,0,0,0,0,0,0,0,0,0,0,0.4209,0.4225,0.4198,0.4185,0.4183,0.4174,0.4173,0.4173,0.4154,0.4153,0.4153,0.4153,0.4128,0.4128,0.4127,0.4129,0,0,0.4125,0.4124,0,0,0,0,0,0,0,0,0.421,0.4208,0.4187,0.4186,0.4184,0.4166,0.4174,0.4158,0.4154,0.4165,0.4153,0.4153,0.4141,0.4139,0.4135,0.4127,0.4126,0.4125,0.4124,0.4124,0.4124,0,0,0,0,0,0,0,0.4211,0.4209,0.4188,0.4187,0.4185,0.4179,0.4177,0.4171,0.4155,0.4164,0.4162,0.416,0.414,0.4136,0.4135,0.4126,0.4125,0.4124,0.4124,0.4123,0.4116,0.4116,0,0,0,0,0,0,0.4214,0.421,0.4189,0.4187,0.4196,0.4179,0.4176,0.4172,0.4155,0.4152,0.416,0.4159,0.4137,0.4135,0.4134,0.4133,0.4124,0.4123,0.4123,0.4115,0.4116,0.4116,0,0,0,0,0,0,0.4215,0.4213,0.419,0.4198,0.4195,0.4179,0.4175,0.4172,0.4168,0.4152,0.4149,0.4159,0.4137,0.4135,0.4129,0.4132,0.4123,0.4122,0.4115,0.4115,0.4116,0.4132,0,0,0,0,0,0,0.4216,0.4213,0.4214,0.4198,0.4195,0.4187,0.4175,0.4172,0.4167,0.4165,0.415,0.4147,0.4137,0.4131,0.4129,0.4131,0.4122,0.4115,0.4115,0.4116,0.4131,0.4133,0.4134,0,0,0,0,0,0.4217,0.422,0.4214,0.4212,0.4195,0.4187,0.4185,0.4172,0.4167,0.4167,0.4157,0.4148,0.4132,0.413,0.4128,0.413,0.4115,0.4115,0.4116,0.4131,0.4133,0.4134,0,0,0,0,0,0,0.4236,0.4218,0.4211,0.4209,0.42,0.4184,0.4184,0.4175,0.4167,0.4166,0.4151,0.4147,0.4143,0.4136,0.4135,0.4129,0.4122,0.4122,0.4134,0.4136,0.4137,0.4139,0.4121,0,0,0,0,0,0.424,0.4235,0.4219,0.4219,0.4214,0.42,0.4196,0.4187,0.4177,0.4173,0.4162,0.4152,0.4144,0.414,0.4132,0.413,0.4126,0.413,0.4131,0.4133,0.4133,0.4129,0.4131,0.4118,0.4118,0.4118,0,0,0.4249,0.4238,0.4236,0.4223,0.4214,0.4209,0.4197,0.4192,0.4187,0.4172,0.4166,0.4157,0.4145,0.4141,0.4139,0.4135,0.4135,0.4133,0.4135,0.4134,0.413,0.4131,0.4132,0.4118,0.4118,0.4118,0,0,0.4261,0.4253,0.4251,0.4242,0.423,0.422,0.4219,0.4204,0.4198,0.4191,0.4179,0.4173,0.4161,0.4152,0.4146,0.4153,0.4144,0.4151,0.4159,0.4156,0.4157,0.4158,0.4159,0.416,0.4151,0.4151,0.4152,0,0.4273,0.4264,0.4251,0.4246,0.424,0.4225,0.4222,0.4215,0.4201,0.4196,0.4192,0.4175,0.4166,0.4159,0.416,0.4157,0.4155,0.4153,0.4158,0.4159,0.4159,0.416,0.4161,0.4152,0.4152,0.4152,0.4152,0,0.4279,0.4273,0.4273,0.4258,0.4252,0.4249,0.4234,0.4229,0.4221,0.4211,0.4204,0.4192,0.4181,0.4179,0.4171,0.417,0.4168,0.4161,0.4153,0.4162,0.4162,0.4163,0.4154,0.4153,0.4153,0.4153,0,0,0.4303,0.428,0.428,0.4273,0.4257,0.4252,0.4247,0.4236,0.4232,0.4222,0.4216,0.4206,0.4199,0.4192,0.4183,0.418,0.4184,0.4173,0.4173,0.4175,0.4181,0.4186,0.4186,0.4178,0.4178,0.4178,0.4182,0,0.4311,0.4302,0.4289,0.4283,0.4277,0.4262,0.4258,0.4247,0.4237,0.423,0.4219,0.4211,0.4204,0.4199,0.4196,0.4185,0.4185,0.4184,0.4172,0.4172,0.4175,0.4187,0.4192,0.4196,0.4182,0.4182,0.4182,0,0.432,0.4311,0.4304,0.4287,0.4284,0.428,0.4268,0.4262,0.4249,0.4242,0.4234,0.4223,0.4216,0.421,0.4199,0.4199,0.4193,0.4186,0.4186,0.4184,0.4177,0.4184,0.4197,0.4197,0.4182,0.4182,0.4182,0,0.4337,0.4322,0.4316,0.431,0.4291,0.4288,0.428,0.4267,0.4261,0.425,0.4245,0.4234,0.4228,0.4219,0.4205,0.4202,0.4196,0.4189,0.4189,0.4189,0.4188,0.4188,0.4199,0.4186,0.4186,0.4186,0.4186,0,0.4347,0.4344,0.4323,0.4319,0.4314,0.4299,0.4294,0.4285,0.4273,0.4266,0.4253,0.4247,0.423,0.4222,0.4211,0.4203,0.4201,0.4194,0.4191,0.4195,0.4196,0.4191,0.419,0.4186,0.4186,0.4186,0.4186,0,0.4365,0.4351,0.4343,0.4325,0.432,0.4317,0.4302,0.4297,0.4286,0.4278,0.4275,0.4258,0.4247,0.4233,0.4218,0.4211,0.4204,0.42,0.4208,0.4206,0.4207,0.4207,0.4215,0.4215,0.4202,0.4202,0.4203,0,0.4372,0.4368,0.435,0.4344,0.4336,0.4328,0.4321,0.4306,0.4299,0.4283,0.428,0.4269,0.4259,0.4242,0.4228,0.4216,0.4211,0.4215,0.4209,0.4213,0.421,0.421,0.4209,0.4216,0.4216,0.4216,0.4216,0,0.4385,0.4378,0.4369,0.4357,0.4349,0.4339,0.4328,0.4324,0.4307,0.43,0.4288,0.428,0.4265,0.4253,0.4239,0.423,0.422,0.4218,0.4217,0.4221,0.4226,0.4222,0.4211,0.4218,0.4218,0.4218,0.4218,0.4218,0.4397,0.4393,0.4378,0.4368,0.4358,0.4348,0.4342,0.4331,0.4321,0.4307,0.4299,0.4288,0.4273,0.4253,0.4245,0.4235,0.4231,0.4231,0.423,0.423,0.4231,0.4227,0.4233,0.4233,0.4233,0.4233,0.4233,0,0.4409,0.4399,0.4389,0.4374,0.4366,0.4357,0.4344,0.4338,0.4328,0.4316,0.4306,0.4292,0.4281,0.4265,0.4252,0.4248,0.4243,0.4245,0.4244,0.4242,0.4236,0.4237,0.4249,0.4249,0.4249,0.4249,0.4249,0.4249,0.4414,0.4406,0.4397,0.4383,0.4373,0.4362,0.4356,0.4346,0.4336,0.4321,0.4311,0.4302,0.4288,0.4273,0.4262,0.4257,0.4253,0.4256,0.425,0.4244,0.4243,0.4242,0.4243,0.4255,0.4255,0.4257,0.4257,0.4257]}]]